This is the latest recevied weather packets stored in our database for station/object K5WNG. If no packets are shown the sender has not sent any weather packets the latest 10 day(s).
| Time | Temp. | Humidity | Pressure | Rain* | Wind** | Luminosity | Snow |
|---|---|---|---|---|---|---|---|
| 1778183117 | 17.78° C | 70% | 1016.7 hPa | 0 mm | - | 341 W/m² | - |
| 1778182817 | 18.33° C | 70% | 1017 hPa | 0 mm | - | 336 W/m² | - |
| 1778182517 | 18.33° C | 70% | 1017 hPa | 0 mm | - | 353 W/m² | - |
| 1778182220 | 17.78° C | 71% | 1017 hPa | 0 mm | - | 346 W/m² | - |
| 1778181920 | 17.78° C | 71% | 1017.1 hPa | 0 mm | - | 345 W/m² | - |
| 1778181617 | 17.78° C | 71% | 1017.1 hPa | 0 mm | - | 335 W/m² | - |
| 1778181317 | 17.78° C | 71% | 1017.2 hPa | 0 mm | - | 348 W/m² | - |
| 1778181021 | 17.78° C | 72% | 1017.1 hPa | 0 mm | - | 274 W/m² | - |
| 1778180721 | 17.78° C | 72% | 1017.1 hPa | 0 mm | - | 225 W/m² | - |
| 1778180422 | 17.78° C | 72% | 1017.2 hPa | 0 mm | - | 188 W/m² | - |
| 1778180117 | 17.78° C | 72% | 1017.1 hPa | 0 mm | - | 234 W/m² | - |
| 1778179821 | 17.78° C | 72% | 1017.1 hPa | 0 mm | - | 283 W/m² | - |
| 1778179521 | 17.78° C | 73% | 1017 hPa | 0 mm | - | 237 W/m² | - |
| 1778179221 | 17.78° C | 73% | 1017.1 hPa | 0 mm | - | 243 W/m² | - |
| 1778178918 | 17.78° C | 72% | 1017.3 hPa | 0 mm | - | 335 W/m² | - |
| 1778178615 | 17.78° C | 73% | 1017.4 hPa | 0 mm | - | 371 W/m² | - |
| 1778178319 | 17.22° C | 73% | 1017.3 hPa | 0 mm | - | 328 W/m² | - |
| 1778178020 | 17.22° C | 74% | 1017.2 hPa | 0 mm | - | 239 W/m² | - |
| 1778177715 | 17.22° C | 75% | 1017.1 hPa | 0 mm | - | 249 W/m² | - |
| 1778177415 | 17.22° C | 74% | 1017.5 hPa | 0 mm | - | 249 W/m² | - |
| 1778177116 | 17.22° C | 75% | 1017.3 hPa | 0 mm | - | 262 W/m² | - |
| 1778176819 | 17.22° C | 74% | 1017.3 hPa | 0 mm | - | 268 W/m² | - |
| 1778176520 | 17.22° C | 74% | 1017.2 hPa | 0 mm | - | 272 W/m² | - |
| 1778176219 | 17.78° C | 73% | 1017.1 hPa | 0 mm | - | 302 W/m² | - |
| 1778175919 | 17.78° C | 74% | 1017.2 hPa | 0 mm | - | 378 W/m² | - |
* Rain latest hour (hover to see other rain measurements)
** Current wind speed in m/s (hover to see current wind gust speed)